Data supplied by UK-AIR on 13/3/2019
All Data GMT hour ending 
Status: R =Ratified P=Provisional,P*=As supplied
,,Ballymena Antrim Road,,,,,,,,,,,,,,,,,,,,,,,
Date,time,"Nitric oxide",status,unit,"Nitrogen dioxide",status,unit,"Nitrogen oxides as nitrogen dioxide",status,unit
 
01-01-2018,01:00,3.84725,R,ugm-3,8.94748,R,ugm-3,14.84651,R,ugm-3
01-01-2018,02:00,,,,,,,,,
01-01-2018,03:00,2.16408,R,ugm-3,6.29829,R,ugm-3,9.61649,R,ugm-3
01-01-2018,04:00,2.70510,R,ugm-3,4.34400,R,ugm-3,8.49176,R,ugm-3
01-01-2018,05:00,2.27228,R,ugm-3,4.44527,R,ugm-3,7.92939,R,ugm-3
01-01-2018,06:00,2.63296,R,ugm-3,5.29816,R,ugm-3,9.33531,R,ugm-3
01-01-2018,07:00,2.12801,R,ugm-3,5.22886,R,ugm-3,8.49176,R,ugm-3
01-01-2018,08:00,4.40029,R,ugm-3,12.59844,R,ugm-3,19.34546,R,ugm-3
01-01-2018,09:00,4.14781,R,ugm-3,6.57457,R,ugm-3,12.93446,R,ugm-3
01-01-2018,10:00,5.51840,R,ugm-3,11.61511,R,ugm-3,20.07654,R,ugm-3
01-01-2018,11:00,7.32179,R,ugm-3,13.06770,R,ugm-3,24.29430,R,ugm-3
01-01-2018,12:00,7.21359,R,ugm-3,11.43403,R,ugm-3,22.49472,R,ugm-3
01-01-2018,13:00,4.83311,R,ugm-3,7.99822,R,ugm-3,15.40888,R,ugm-3
01-01-2018,14:00,5.66267,R,ugm-3,9.70680,R,ugm-3,18.38943,R,ugm-3
01-01-2018,15:00,8.65631,R,ugm-3,11.07771,R,ugm-3,24.35053,R,ugm-3
01-01-2018,16:00,6.70864,R,ugm-3,13.10807,R,ugm-3,23.39451,R,ugm-3
01-01-2018,17:00,20.01771,R,ugm-3,24.02501,R,ugm-3,54.71840,R,ugm-3
01-01-2018,18:00,10.24330,R,ugm-3,20.34162,R,ugm-3,36.04779,R,ugm-3
01-01-2018,19:00,8.00709,R,ugm-3,18.70912,R,ugm-3,30.98647,R,ugm-3
01-01-2018,20:00,18.10611,R,ugm-3,35.61655,R,ugm-3,63.37887,R,ugm-3
01-01-2018,21:00,22.28999,R,ugm-3,35.21870,R,ugm-3,69.39621,R,ugm-3
01-01-2018,22:00,7.61034,R,ugm-3,14.93098,R,ugm-3,26.60000,R,ugm-3
01-01-2018,23:00,11.46961,R,ugm-3,19.41733,R,ugm-3,37.00381,R,ugm-3
01-01-2018,24:00,12.44344,R,ugm-3,22.59179,R,ugm-3,41.67147,R,ugm-3
02-01-2018,01:00,2.07007,R,ugm-3,1.92773,R,ugm-3,5.10180,R,ugm-3
02-01-2018,02:00,,,,,,,,,
02-01-2018,03:00,1.55256,R,ugm-3,5.60976,R,ugm-3,7.99032,R,ugm-3
02-01-2018,04:00,1.44424,R,ugm-3,4.31283,R,ugm-3,6.52730,R,ugm-3
02-01-2018,05:00,5.77695,R,ugm-3,11.11792,R,ugm-3,19.97579,R,ugm-3
02-01-2018,06:00,4.47714,R,ugm-3,13.44856,R,ugm-3,20.31341,R,ugm-3
02-01-2018,07:00,19.85827,R,ugm-3,31.05401,R,ugm-3,61.50292,R,ugm-3
02-01-2018,08:00,16.78926,R,ugm-3,31.87713,R,ugm-3,57.62030,R,ugm-3
02-01-2018,09:00,13.28698,R,ugm-3,20.02865,R,ugm-3,40.40174,R,ugm-3
02-01-2018,10:00,16.82537,R,ugm-3,20.34272,R,ugm-3,46.14126,R,ugm-3
02-01-2018,11:00,18.95562,R,ugm-3,25.46059,R,ugm-3,54.52546,R,ugm-3
02-01-2018,12:00,27.11556,R,ugm-3,30.67385,R,ugm-3,72.25046,R,ugm-3
02-01-2018,13:00,14.51459,R,ugm-3,18.76532,R,ugm-3,41.02070,R,ugm-3
02-01-2018,14:00,24.08266,R,ugm-3,30.31622,R,ugm-3,67.24244,R,ugm-3
02-01-2018,15:00,56.72242,R,ugm-3,73.62092,R,ugm-3,160.59408,R,ugm-3
02-01-2018,16:00,39.46379,R,ugm-3,57.99396,R,ugm-3,118.50426,R,ugm-3
02-01-2018,17:00,45.06021,R,ugm-3,60.83568,R,ugm-3,129.92703,R,ugm-3
02-01-2018,18:00,29.78740,R,ugm-3,40.86962,R,ugm-3,86.54299,R,ugm-3
02-01-2018,19:00,9.17091,R,ugm-3,13.90424,R,ugm-3,27.96610,R,ugm-3
02-01-2018,20:00,3.46617,R,ugm-3,7.00837,R,ugm-3,12.32309,R,ugm-3
02-01-2018,21:00,6.49907,R,ugm-3,14.11839,R,ugm-3,24.08349,R,ugm-3
02-01-2018,22:00,5.81306,R,ugm-3,8.41788,R,ugm-3,17.33111,R,ugm-3
02-01-2018,23:00,3.17732,R,ugm-3,4.01881,R,ugm-3,8.89063,R,ugm-3
02-01-2018,24:00,1.37203,R,ugm-3,1.89142,R,ugm-3,3.99516,R,ugm-3
03-01-2018,01:00,2.65055,R,ugm-3,2.61715,R,ugm-3,6.68127,R,ugm-3
03-01-2018,02:00,,,,,,,,,
03-01-2018,03:00,0.50602,R,ugm-3,0.51909,R,ugm-3,1.29497,R,ugm-3
03-01-2018,04:00,0.79517,R,ugm-3,0.46985,R,ugm-3,1.68909,R,ugm-3
03-01-2018,05:00,1.26504,R,ugm-3,0.46926,R,ugm-3,1.65155,R,ugm-3
03-01-2018,06:00,2.67465,R,ugm-3,3.04939,R,ugm-3,7.15046,R,ugm-3
03-01-2018,07:00,12.97567,R,ugm-3,10.28259,R,ugm-3,30.17833,R,ugm-3
03-01-2018,08:00,11.34919,R,ugm-3,17.73113,R,ugm-3,35.13298,R,ugm-3
03-01-2018,09:00,8.63840,R,ugm-3,10.45815,R,ugm-3,23.70350,R,ugm-3
03-01-2018,10:00,11.60220,R,ugm-3,13.06418,R,ugm-3,30.85397,R,ugm-3
03-01-2018,11:00,8.34925,R,ugm-3,13.99816,R,ugm-3,26.80016,R,ugm-3
03-01-2018,12:00,19.51772,R,ugm-3,24.18030,R,ugm-3,54.10705,R,ugm-3
03-01-2018,13:00,21.25263,R,ugm-3,27.20673,R,ugm-3,59.79363,R,ugm-3
03-01-2018,14:00,14.92744,R,ugm-3,20.63369,R,ugm-3,43.52211,R,ugm-3
03-01-2018,15:00,16.73464,R,ugm-3,9.75508,R,ugm-3,35.41450,R,ugm-3
03-01-2018,16:00,9.68657,R,ugm-3,17.29640,R,ugm-3,32.14893,R,ugm-3
03-01-2018,17:00,8.85526,R,ugm-3,12.43404,R,ugm-3,26.01192,R,ugm-3
03-01-2018,18:00,11.06004,R,ugm-3,13.38875,R,ugm-3,30.34724,R,ugm-3
03-01-2018,19:00,8.49382,R,ugm-3,10.73613,R,ugm-3,23.75981,R,ugm-3
03-01-2018,20:00,6.14447,R,ugm-3,10.34092,R,ugm-3,19.76230,R,ugm-3
03-01-2018,21:00,5.92760,R,ugm-3,14.16422,R,ugm-3,23.25308,R,ugm-3
03-01-2018,22:00,7.66251,R,ugm-3,22.42682,R,ugm-3,34.17583,R,ugm-3
03-01-2018,23:00,12.50580,R,ugm-3,20.91235,R,ugm-3,40.08764,R,ugm-3
03-01-2018,24:00,4.91557,R,ugm-3,10.87393,R,ugm-3,18.41104,R,ugm-3
04-01-2018,01:00,3.71468,R,ugm-3,6.17234,R,ugm-3,11.86809,R,ugm-3
04-01-2018,02:00,,,,,,,,,
04-01-2018,03:00,1.23019,R,ugm-3,3.52199,R,ugm-3,5.40825,R,ugm-3
04-01-2018,04:00,0.90455,R,ugm-3,4.41564,R,ugm-3,5.80260,R,ugm-3
04-01-2018,05:00,3.03928,R,ugm-3,7.67740,R,ugm-3,12.33756,R,ugm-3
04-01-2018,06:00,5.68056,R,ugm-3,11.51451,R,ugm-3,20.22458,R,ugm-3
04-01-2018,07:00,40.52374,R,ugm-3,61.69075,R,ugm-3,123.82628,R,ugm-3
04-01-2018,08:00,25.54443,R,ugm-3,39.25198,R,ugm-3,78.41956,R,ugm-3
04-01-2018,09:00,12.48276,R,ugm-3,34.37913,R,ugm-3,53.51909,R,ugm-3
04-01-2018,10:00,2.85837,R,ugm-3,21.98242,R,ugm-3,26.36520,R,ugm-3
04-01-2018,11:00,8.39420,R,ugm-3,27.63457,R,ugm-3,40.50550,R,ugm-3
04-01-2018,12:00,20.08096,R,ugm-3,18.16551,R,ugm-3,48.95589,R,ugm-3
04-01-2018,13:00,25.76152,R,ugm-3,32.38415,R,ugm-3,71.88459,R,ugm-3
04-01-2018,14:00,32.38281,R,ugm-3,41.27318,R,ugm-3,90.92612,R,ugm-3
04-01-2018,15:00,46.96411,R,ugm-3,56.04083,R,ugm-3,128.05147,R,ugm-3
04-01-2018,16:00,32.41899,R,ugm-3,41.83740,R,ugm-3,91.54582,R,ugm-3
04-01-2018,17:00,76.63328,R,ugm-3,78.26449,R,ugm-3,195.76721,R,ugm-3
04-01-2018,18:00,110.02918,R,ugm-3,111.39298,R,ugm-3,280.10203,R,ugm-3
04-01-2018,19:00,94.94132,R,ugm-3,100.33149,R,ugm-3,245.90615,R,ugm-3
04-01-2018,20:00,50.36521,R,ugm-3,70.03643,R,ugm-3,147.26201,R,ugm-3
04-01-2018,21:00,15.41349,R,ugm-3,31.85716,R,ugm-3,55.49085,R,ugm-3
04-01-2018,22:00,14.29185,R,ugm-3,32.67561,R,ugm-3,54.58947,R,ugm-3
04-01-2018,23:00,11.14403,R,ugm-3,19.41839,R,ugm-3,36.50566,R,ugm-3
04-01-2018,24:00,8.06857,R,ugm-3,14.44426,R,ugm-3,26.81588,R,ugm-3
05-01-2018,01:00,13.03916,R,ugm-3,27.73258,R,ugm-3,47.72568,R,ugm-3
05-01-2018,02:00,,,,,,,,,
05-01-2018,03:00,4.78103,R,ugm-3,13.18748,R,ugm-3,20.51829,R,ugm-3
05-01-2018,04:00,3.44089,R,ugm-3,10.16913,R,ugm-3,15.44508,R,ugm-3
05-01-2018,05:00,8.25814,R,ugm-3,15.74764,R,ugm-3,28.40994,R,ugm-3
05-01-2018,06:00,23.03585,R,ugm-3,33.89989,R,ugm-3,69.22103,R,ugm-3
05-01-2018,07:00,87.68836,R,ugm-3,73.94228,R,ugm-3,208.39589,R,ugm-3
05-01-2018,08:00,86.13091,R,ugm-3,65.00019,R,ugm-3,197.06574,R,ugm-3
05-01-2018,09:00,77.51057,R,ugm-3,61.19444,R,ugm-3,180.04233,R,ugm-3
05-01-2018,10:00,72.15003,R,ugm-3,51.43214,R,ugm-3,162.06064,R,ugm-3
05-01-2018,11:00,57.44475,R,ugm-3,54.36354,R,ugm-3,142.44426,R,ugm-3
05-01-2018,12:00,50.12833,R,ugm-3,50.08043,R,ugm-3,126.94280,R,ugm-3
05-01-2018,13:00,50.67163,R,ugm-3,59.73201,R,ugm-3,137.42742,R,ugm-3
05-01-2018,14:00,53.78654,R,ugm-3,61.10009,R,ugm-3,143.57164,R,ugm-3
05-01-2018,15:00,64.32653,R,ugm-3,69.62858,R,ugm-3,168.26122,R,ugm-3
05-01-2018,16:00,15.21236,R,ugm-3,39.52606,R,ugm-3,62.85134,R,ugm-3
05-01-2018,17:00,11.51793,R,ugm-3,33.46604,R,ugm-3,51.12661,R,ugm-3
05-01-2018,18:00,5.90384,R,ugm-3,20.87946,R,ugm-3,29.93190,R,ugm-3
05-01-2018,19:00,3.47711,R,ugm-3,10.79002,R,ugm-3,16.12151,R,ugm-3
05-01-2018,20:00,4.41883,R,ugm-3,11.48809,R,ugm-3,18.26353,R,ugm-3
05-01-2018,21:00,4.02041,R,ugm-3,10.18245,R,ugm-3,16.34699,R,ugm-3
05-01-2018,22:00,3.33223,R,ugm-3,10.84306,R,ugm-3,15.95240,R,ugm-3
05-01-2018,23:00,1.70234,R,ugm-3,6.97251,R,ugm-3,9.58272,R,ugm-3
05-01-2018,24:00,0.72440,R,ugm-3,6.38634,R,ugm-3,7.49707,R,ugm-3
06-01-2018,01:00,0.62847,R,ugm-3,6.40622,R,ugm-3,7.36986,R,ugm-3
06-01-2018,02:00,,,,,,,,,
06-01-2018,03:00,0.32632,R,ugm-3,2.26334,R,ugm-3,2.76370,R,ugm-3
06-01-2018,04:00,0.36258,R,ugm-3,2.82817,R,ugm-3,3.38412,R,ugm-3
06-01-2018,05:00,0.58013,R,ugm-3,2.38180,R,ugm-3,3.27131,R,ugm-3
06-01-2018,06:00,0.36258,R,ugm-3,2.32055,R,ugm-3,2.87650,R,ugm-3
06-01-2018,07:00,0.83393,R,ugm-3,2.27465,R,ugm-3,3.55332,R,ugm-3
06-01-2018,08:00,0.83393,R,ugm-3,2.66946,R,ugm-3,3.94814,R,ugm-3
06-01-2018,09:00,1.41406,R,ugm-3,4.54364,R,ugm-3,6.71183,R,ugm-3
06-01-2018,10:00,2.10296,R,ugm-3,4.55898,R,ugm-3,7.78347,R,ugm-3
06-01-2018,11:00,3.37198,R,ugm-3,5.94088,R,ugm-3,11.11118,R,ugm-3
06-01-2018,12:00,2.10296,R,ugm-3,6.08183,R,ugm-3,9.30632,R,ugm-3
06-01-2018,13:00,2.03044,R,ugm-3,6.13662,R,ugm-3,9.24992,R,ugm-3
06-01-2018,14:00,3.66205,R,ugm-3,8.65463,R,ugm-3,14.26969,R,ugm-3
06-01-2018,15:00,1.74038,R,ugm-3,6.69418,R,ugm-3,9.36272,R,ugm-3
06-01-2018,16:00,2.03044,R,ugm-3,7.03905,R,ugm-3,10.15235,R,ugm-3
06-01-2018,17:00,1.99418,R,ugm-3,9.80194,R,ugm-3,12.85964,R,ugm-3
06-01-2018,18:00,2.39302,R,ugm-3,18.94794,R,ugm-3,22.61718,R,ugm-3
06-01-2018,19:00,10.84111,R,ugm-3,45.13734,R,ugm-3,61.76014,R,ugm-3
06-01-2018,20:00,48.58556,R,ugm-3,76.26559,R,ugm-3,150.76241,R,ugm-3
06-01-2018,21:00,96.11964,R,ugm-3,88.49156,R,ugm-3,235.87295,R,ugm-3
06-01-2018,22:00,126.61251,R,ugm-3,85.78640,R,ugm-3,279.92287,R,ugm-3
06-01-2018,23:00,97.82376,R,ugm-3,87.40147,R,ugm-3,237.39580,R,ugm-3
06-01-2018,24:00,33.86486,R,ugm-3,64.65744,R,ugm-3,116.58283,R,ugm-3
07-01-2018,01:00,37.16697,R,ugm-3,62.12688,R,ugm-3,119.11543,R,ugm-3
07-01-2018,02:00,,,,,,,,,
07-01-2018,03:00,42.68394,R,ugm-3,50.13105,R,ugm-3,115.57884,R,ugm-3
07-01-2018,04:00,53.68158,R,ugm-3,53.86699,R,ugm-3,136.17761,R,ugm-3
07-01-2018,05:00,25.98784,R,ugm-3,39.27438,R,ugm-3,79.12184,R,ugm-3
07-01-2018,06:00,37.52992,R,ugm-3,32.97663,R,ugm-3,90.52171,R,ugm-3
07-01-2018,07:00,82.89975,R,ugm-3,56.97972,R,ugm-3,184.09090,R,ugm-3
07-01-2018,08:00,139.52130,R,ugm-3,52.16125,R,ugm-3,266.09093,R,ugm-3
07-01-2018,09:00,104.85875,R,ugm-3,47.23816,R,ugm-3,208.01934,R,ugm-3
07-01-2018,10:00,94.07888,R,ugm-3,49.31971,R,ugm-3,193.57198,R,ugm-3
07-01-2018,11:00,111.10164,R,ugm-3,54.25775,R,ugm-3,224.61122,R,ugm-3
07-01-2018,12:00,134.76654,R,ugm-3,69.27146,R,ugm-3,275.91062,R,ugm-3
07-01-2018,13:00,107.03650,R,ugm-3,66.98089,R,ugm-3,231.10124,R,ugm-3
07-01-2018,14:00,22.75751,R,ugm-3,31.52961,R,ugm-3,66.42397,R,ugm-3
07-01-2018,15:00,10.01766,R,ugm-3,16.92061,R,ugm-3,32.28081,R,ugm-3
07-01-2018,16:00,92.33668,R,ugm-3,78.79766,R,ugm-3,220.37860,R,ugm-3
07-01-2018,17:00,170.91723,R,ugm-3,118.07660,R,ugm-3,380.14602,R,ugm-3
07-01-2018,18:00,188.88368,R,ugm-3,128.73490,R,ugm-3,418.35250,R,ugm-3
07-01-2018,19:00,109.57722,R,ugm-3,94.97095,R,ugm-3,262.98701,R,ugm-3
07-01-2018,20:00,57.49265,R,ugm-3,77.42606,R,ugm-3,165.58023,R,ugm-3
07-01-2018,21:00,120.21190,R,ugm-3,97.06246,R,ugm-3,281.38481,R,ugm-3
07-01-2018,22:00,38.72769,R,ugm-3,68.89508,R,ugm-3,128.27671,R,ugm-3
07-01-2018,23:00,35.60624,R,ugm-3,57.59726,R,ugm-3,112.19274,R,ugm-3
07-01-2018,24:00,23.48343,R,ugm-3,54.96577,R,ugm-3,90.97319,R,ugm-3
08-01-2018,01:00,22.67232,R,ugm-3,40.45165,R,ugm-3,75.21539,R,ugm-3
08-01-2018,02:00,,,,,,,,,
08-01-2018,03:00,2.97938,R,ugm-3,5.31359,R,ugm-3,9.88190,R,ugm-3
08-01-2018,04:00,0.79935,R,ugm-3,4.59056,R,ugm-3,5.81621,R,ugm-3
08-01-2018,05:00,7.08510,R,ugm-3,13.30464,R,ugm-3,24.16831,R,ugm-3
08-01-2018,06:00,11.84484,R,ugm-3,24.30212,R,ugm-3,42.46394,R,ugm-3
08-01-2018,07:00,77.13676,R,ugm-3,72.86949,R,ugm-3,191.14421,R,ugm-3
08-01-2018,08:00,181.26958,R,ugm-3,117.10739,R,ugm-3,395.05020,R,ugm-3
08-01-2018,09:00,215.06006,R,ugm-3,116.62546,R,ugm-3,446.37962,R,ugm-3
08-01-2018,10:00,114.30629,R,ugm-3,90.41478,R,ugm-3,265.68199,R,ugm-3
08-01-2018,11:00,18.60293,R,ugm-3,24.72524,R,ugm-3,53.24933,R,ugm-3
08-01-2018,12:00,16.96791,R,ugm-3,20.51254,R,ugm-3,46.52964,R,ugm-3
08-01-2018,13:00,27.50473,R,ugm-3,25.92710,R,ugm-3,68.10042,R,ugm-3
08-01-2018,14:00,11.88117,R,ugm-3,23.39939,R,ugm-3,41.61692,R,ugm-3
08-01-2018,15:00,12.49884,R,ugm-3,23.97693,R,ugm-3,43.14156,R,ugm-3
08-01-2018,16:00,15.58722,R,ugm-3,30.08334,R,ugm-3,53.98342,R,ugm-3
08-01-2018,17:00,11.95384,R,ugm-3,26.56311,R,ugm-3,44.89207,R,ugm-3
08-01-2018,18:00,16.49557,R,ugm-3,32.81273,R,ugm-3,58.10558,R,ugm-3
08-01-2018,19:00,35.06217,R,ugm-3,43.36374,R,ugm-3,97.12498,R,ugm-3
08-01-2018,20:00,10.64582,R,ugm-3,29.86747,R,ugm-3,46.19083,R,ugm-3
08-01-2018,21:00,5.70441,R,ugm-3,21.35080,R,ugm-3,30.09745,R,ugm-3
08-01-2018,22:00,4.10573,R,ugm-3,12.28262,R,ugm-3,18.57798,R,ugm-3
08-01-2018,23:00,3.34271,R,ugm-3,12.37966,R,ugm-3,17.50508,R,ugm-3
08-01-2018,24:00,2.21637,R,ugm-3,14.27611,R,ugm-3,17.67449,R,ugm-3
09-01-2018,01:00,0.82443,R,ugm-3,7.77606,R,ugm-3,9.04017,R,ugm-3
09-01-2018,02:00,,,,,,,,,
09-01-2018,03:00,0.58195,R,ugm-3,8.88237,R,ugm-3,9.77468,R,ugm-3
09-01-2018,04:00,0.69107,R,ugm-3,8.15005,R,ugm-3,9.20967,R,ugm-3
09-01-2018,05:00,1.45487,R,ugm-3,8.05242,R,ugm-3,10.28319,R,ugm-3
09-01-2018,06:00,2.90975,R,ugm-3,9.94622,R,ugm-3,14.40777,R,ugm-3
09-01-2018,07:00,9.09296,R,ugm-3,14.53418,R,ugm-3,28.47652,R,ugm-3
09-01-2018,08:00,16.29458,R,ugm-3,19.08613,R,ugm-3,44.07081,R,ugm-3
09-01-2018,09:00,26.98790,R,ugm-3,25.45986,R,ugm-3,66.84073,R,ugm-3
09-01-2018,10:00,16.73105,R,ugm-3,23.21949,R,ugm-3,48.87340,R,ugm-3
09-01-2018,11:00,9.52942,R,ugm-3,21.83160,R,ugm-3,36.44317,R,ugm-3
09-01-2018,12:00,7.85632,R,ugm-3,22.41945,R,ugm-3,34.46564,R,ugm-3
09-01-2018,13:00,11.56624,R,ugm-3,21.25106,R,ugm-3,38.98572,R,ugm-3
09-01-2018,14:00,9.63854,R,ugm-3,18.89574,R,ugm-3,33.67462,R,ugm-3
09-01-2018,15:00,8.80198,R,ugm-3,23.73800,R,ugm-3,37.23419,R,ugm-3
09-01-2018,16:00,7.81995,R,ugm-3,20.55418,R,ugm-3,32.54460,R,ugm-3
09-01-2018,17:00,10.58421,R,ugm-3,22.36133,R,ugm-3,38.59021,R,ugm-3
09-01-2018,18:00,9.45668,R,ugm-3,18.60957,R,ugm-3,33.10961,R,ugm-3
09-01-2018,19:00,5.85587,R,ugm-3,19.89316,R,ugm-3,28.87203,R,ugm-3
09-01-2018,20:00,4.07365,R,ugm-3,20.47882,R,ugm-3,26.72499,R,ugm-3
09-01-2018,21:00,3.38258,R,ugm-3,17.58337,R,ugm-3,22.76992,R,ugm-3
09-01-2018,22:00,6.29233,R,ugm-3,15.26886,R,ugm-3,24.91696,R,ugm-3
09-01-2018,23:00,7.49260,R,ugm-3,18.28756,R,ugm-3,29.77605,R,ugm-3
09-01-2018,24:00,6.36507,R,ugm-3,13.23628,R,ugm-3,22.99592,R,ugm-3
10-01-2018,01:00,6.89359,R,ugm-3,13.55118,R,ugm-3,24.12120,R,ugm-3
10-01-2018,02:00,,,,,,,,,
10-01-2018,03:00,2.11177,R,ugm-3,6.99467,R,ugm-3,10.23267,R,ugm-3
10-01-2018,04:00,0.87384,R,ugm-3,3.69167,R,ugm-3,5.03153,R,ugm-3
10-01-2018,05:00,1.82049,R,ugm-3,6.02793,R,ugm-3,8.81932,R,ugm-3
10-01-2018,06:00,9.35732,R,ugm-3,17.02871,R,ugm-3,31.37641,R,ugm-3
10-01-2018,07:00,41.28874,R,ugm-3,47.61133,R,ugm-3,110.91985,R,ugm-3
10-01-2018,08:00,64.48180,R,ugm-3,67.00026,R,ugm-3,165.87097,R,ugm-3
10-01-2018,09:00,85.96359,R,ugm-3,76.40599,R,ugm-3,208.21499,R,ugm-3
10-01-2018,10:00,35.97290,R,ugm-3,45.58603,R,ugm-3,100.74372,R,ugm-3
10-01-2018,11:00,27.16173,R,ugm-3,33.99519,R,ugm-3,75.64259,R,ugm-3
10-01-2018,12:00,28.43607,R,ugm-3,37.46849,R,ugm-3,81.06986,R,ugm-3
10-01-2018,13:00,47.55123,R,ugm-3,52.19904,R,ugm-3,125.10990,R,ugm-3
10-01-2018,14:00,38.08467,R,ugm-3,39.57786,R,ugm-3,97.97355,R,ugm-3
10-01-2018,15:00,39.43184,R,ugm-3,56.73382,R,ugm-3,117.19513,R,ugm-3
10-01-2018,16:00,24.97714,R,ugm-3,51.70450,R,ugm-3,90.00224,R,ugm-3
10-01-2018,17:00,105.69772,R,ugm-3,79.21985,R,ugm-3,241.28742,R,ugm-3
10-01-2018,18:00,143.12701,R,ugm-3,82.88586,R,ugm-3,302.34421,R,ugm-3
10-01-2018,19:00,97.43269,R,ugm-3,76.17625,R,ugm-3,225.57095,R,ugm-3
10-01-2018,20:00,110.54022,R,ugm-3,76.26097,R,ugm-3,245.75361,R,ugm-3
10-01-2018,21:00,111.04996,R,ugm-3,77.51461,R,ugm-3,247.78884,R,ugm-3
10-01-2018,22:00,97.28705,R,ugm-3,63.56632,R,ugm-3,212.73771,R,ugm-3
10-01-2018,23:00,101.98391,R,ugm-3,60.43501,R,ugm-3,216.80816,R,ugm-3
10-01-2018,24:00,104.38696,R,ugm-3,56.58079,R,ugm-3,216.63856,R,ugm-3
11-01-2018,01:00,89.27283,R,ugm-3,51.67391,R,ugm-3,188.55701,R,ugm-3
11-01-2018,02:00,,,,,,,,,
11-01-2018,03:00,35.28148,R,ugm-3,31.54508,R,ugm-3,85.64259,R,ugm-3
11-01-2018,04:00,48.58493,R,ugm-3,32.47254,R,ugm-3,106.96839,R,ugm-3
11-01-2018,05:00,61.48745,R,ugm-3,31.97833,R,ugm-3,126.25777,R,ugm-3
11-01-2018,06:00,67.42845,R,ugm-3,31.69340,R,ugm-3,135.08224,R,ugm-3
11-01-2018,07:00,146.26506,R,ugm-3,62.69495,R,ugm-3,286.96491,R,ugm-3
11-01-2018,08:00,189.74729,R,ugm-3,68.08961,R,ugm-3,359.03140,R,ugm-3
11-01-2018,09:00,169.48231,R,ugm-3,65.56129,R,ugm-3,325.43054,R,ugm-3
11-01-2018,10:00,212.27204,R,ugm-3,93.11731,R,ugm-3,418.59656,R,ugm-3
11-01-2018,11:00,149.03509,R,ugm-3,57.48599,R,ugm-3,286.00327,R,ugm-3
11-01-2018,12:00,118.34603,R,ugm-3,56.91238,R,ugm-3,238.37377,R,ugm-3
11-01-2018,13:00,90.97373,R,ugm-3,54.81689,R,ugm-3,194.30800,R,ugm-3
11-01-2018,14:00,63.05471,R,ugm-3,48.52521,R,ugm-3,145.20775,R,ugm-3
11-01-2018,15:00,60.21178,R,ugm-3,58.76729,R,ugm-3,151.09073,R,ugm-3
11-01-2018,16:00,99.72120,R,ugm-3,73.42126,R,ugm-3,226.32498,R,ugm-3
11-01-2018,17:00,48.29335,R,ugm-3,56.50811,R,ugm-3,130.55687,R,ugm-3
11-01-2018,18:00,20.73880,R,ugm-3,31.21670,R,ugm-3,63.01575,R,ugm-3
11-01-2018,19:00,61.05008,R,ugm-3,66.87205,R,ugm-3,160.48087,R,ugm-3
11-01-2018,20:00,44.86725,R,ugm-3,60.06437,R,ugm-3,128.85986,R,ugm-3
11-01-2018,21:00,9.62222,R,ugm-3,40.39906,R,ugm-3,55.15293,R,ugm-3
11-01-2018,22:00,12.42870,R,ugm-3,27.27138,R,ugm-3,46.32846,R,ugm-3
11-01-2018,23:00,10.24184,R,ugm-3,21.80006,R,ugm-3,37.50399,R,ugm-3
11-01-2018,24:00,7.10732,R,ugm-3,18.63028,R,ugm-3,29.52803,R,ugm-3
12-01-2018,01:00,4.18371,R,ugm-3,15.47046,R,ugm-3,21.88538,R,ugm-3
12-01-2018,02:00,,,,,,,,,
12-01-2018,03:00,0.87566,R,ugm-3,2.61935,R,ugm-3,3.96201,R,ugm-3
12-01-2018,04:00,1.42295,R,ugm-3,2.57259,R,ugm-3,4.75441,R,ugm-3
12-01-2018,05:00,1.82429,R,ugm-3,3.25901,R,ugm-3,6.05621,R,ugm-3
12-01-2018,06:00,3.13778,R,ugm-3,6.39563,R,ugm-3,11.20683,R,ugm-3
12-01-2018,07:00,9.88765,R,ugm-3,14.49762,R,ugm-3,29.65847,R,ugm-3
12-01-2018,08:00,20.72393,R,ugm-3,23.91828,R,ugm-3,55.69453,R,ugm-3
12-01-2018,09:00,19.92124,R,ugm-3,18.69663,R,ugm-3,49.24212,R,ugm-3
12-01-2018,10:00,19.00910,R,ugm-3,23.49125,R,ugm-3,52.63812,R,ugm-3
12-01-2018,11:00,13.17137,R,ugm-3,15.06606,R,ugm-3,35.26188,R,ugm-3
12-01-2018,12:00,13.09840,R,ugm-3,17.83816,R,ugm-3,37.92209,R,ugm-3
12-01-2018,13:00,12.36869,R,ugm-3,16.18363,R,ugm-3,35.14868,R,ugm-3
12-01-2018,14:00,12.77003,R,ugm-3,20.32266,R,ugm-3,39.90309,R,ugm-3
12-01-2018,15:00,18.82667,R,ugm-3,24.61997,R,ugm-3,53.48713,R,ugm-3
12-01-2018,16:00,14.55783,R,ugm-3,25.84502,R,ugm-3,48.16671,R,ugm-3
12-01-2018,17:00,18.02398,R,ugm-3,27.83174,R,ugm-3,55.46813,R,ugm-3
12-01-2018,18:00,13.13489,R,ugm-3,21.34802,R,ugm-3,41.48790,R,ugm-3
12-01-2018,19:00,8.50119,R,ugm-3,15.71789,R,ugm-3,28.75287,R,ugm-3
12-01-2018,20:00,7.44310,R,ugm-3,15.86867,R,ugm-3,27.28126,R,ugm-3
12-01-2018,21:00,6.85933,R,ugm-3,12.91496,R,ugm-3,23.43246,R,ugm-3
12-01-2018,22:00,3.21075,R,ugm-3,10.13256,R,ugm-3,15.05564,R,ugm-3
12-01-2018,23:00,4.04992,R,ugm-3,9.52504,R,ugm-3,15.73484,R,ugm-3
12-01-2018,24:00,2.04321,R,ugm-3,10.90396,R,ugm-3,14.03683,R,ugm-3
13-01-2018,01:00,1.75314,R,ugm-3,12.11202,R,ugm-3,14.80013,R,ugm-3
13-01-2018,02:00,,,,,,,,,
13-01-2018,03:00,0.54786,R,ugm-3,10.26007,R,ugm-3,11.10010,R,ugm-3
13-01-2018,04:00,0.51133,R,ugm-3,7.71094,R,ugm-3,8.49498,R,ugm-3
13-01-2018,05:00,0.73048,R,ugm-3,7.94126,R,ugm-3,9.06131,R,ugm-3
13-01-2018,06:00,1.71662,R,ugm-3,8.01492,R,ugm-3,10.64704,R,ugm-3
13-01-2018,07:00,1.97228,R,ugm-3,7.73617,R,ugm-3,10.76030,R,ugm-3
13-01-2018,08:00,3.68890,R,ugm-3,9.80462,R,ugm-3,15.46086,R,ugm-3
13-01-2018,09:00,4.09066,R,ugm-3,10.43452,R,ugm-3,16.70678,R,ugm-3
13-01-2018,10:00,6.93952,R,ugm-3,11.61639,R,ugm-3,22.25683,R,ugm-3
13-01-2018,11:00,7.99871,R,ugm-3,8.57649,R,ugm-3,20.84100,R,ugm-3
13-01-2018,12:00,7.48738,R,ugm-3,14.00444,R,ugm-3,25.48492,R,ugm-3
13-01-2018,13:00,10.11709,R,ugm-3,13.87996,R,ugm-3,29.39261,R,ugm-3
13-01-2018,14:00,14.42689,R,ugm-3,20.92028,R,ugm-3,43.04121,R,ugm-3
13-01-2018,15:00,17.34880,R,ugm-3,23.23607,R,ugm-3,49.83718,R,ugm-3
13-01-2018,16:00,15.04780,R,ugm-3,17.36311,R,ugm-3,40.43608,R,ugm-3
13-01-2018,17:00,13.98861,R,ugm-3,18.19431,R,ugm-3,39.64321,R,ugm-3
13-01-2018,18:00,14.71908,R,ugm-3,20.30236,R,ugm-3,42.87131,R,ugm-3
13-01-2018,19:00,15.08432,R,ugm-3,19.96887,R,ugm-3,43.09784,R,ugm-3
13-01-2018,20:00,11.94328,R,ugm-3,19.17839,R,ugm-3,37.49115,R,ugm-3
13-01-2018,21:00,10.99366,R,ugm-3,19.38852,R,ugm-3,36.24523,R,ugm-3
13-01-2018,22:00,10.37275,R,ugm-3,14.67724,R,ugm-3,30.58191,R,ugm-3
13-01-2018,23:00,10.59190,R,ugm-3,22.21324,R,ugm-3,38.45392,R,ugm-3
13-01-2018,24:00,10.15361,R,ugm-3,19.71381,R,ugm-3,35.28246,R,ugm-3
14-01-2018,01:00,3.60743,R,ugm-3,12.29965,R,ugm-3,17.83096,R,ugm-3
14-01-2018,02:00,,,,,,,,,
14-01-2018,03:00,7.56829,R,ugm-3,11.40193,R,ugm-3,23.00647,R,ugm-3
14-01-2018,04:00,3.36368,R,ugm-3,10.87896,R,ugm-3,16.03653,R,ugm-3
14-01-2018,05:00,2.41308,R,ugm-3,9.21989,R,ugm-3,12.91989,R,ugm-3
14-01-2018,06:00,3.10775,R,ugm-3,8.49474,R,ugm-3,13.25989,R,ugm-3
14-01-2018,07:00,6.65424,R,ugm-3,13.37011,R,ugm-3,23.57314,R,ugm-3
14-01-2018,08:00,8.37265,R,ugm-3,16.40188,R,ugm-3,29.23976,R,ugm-3
14-01-2018,09:00,6.87361,R,ugm-3,11.50376,R,ugm-3,22.04315,R,ugm-3
14-01-2018,10:00,7.56829,R,ugm-3,15.53857,R,ugm-3,27.14311,R,ugm-3
14-01-2018,11:00,6.76393,R,ugm-3,9.34863,R,ugm-3,19.71984,R,ugm-3
14-01-2018,12:00,11.37071,R,ugm-3,13.39157,R,ugm-3,30.82641,R,ugm-3
14-01-2018,13:00,12.94287,R,ugm-3,16.87424,R,ugm-3,36.71969,R,ugm-3
14-01-2018,14:00,18.20776,R,ugm-3,15.09147,R,ugm-3,43.00964,R,ugm-3
14-01-2018,15:00,13.82035,R,ugm-3,17.51211,R,ugm-3,38.70301,R,ugm-3
14-01-2018,16:00,11.80945,R,ugm-3,14.64549,R,ugm-3,32.75306,R,ugm-3
14-01-2018,17:00,11.48040,R,ugm-3,14.69670,R,ugm-3,32.29973,R,ugm-3
14-01-2018,18:00,11.51696,R,ugm-3,16.62396,R,ugm-3,34.28305,R,ugm-3
14-01-2018,19:00,8.92107,R,ugm-3,18.39428,R,ugm-3,32.07307,R,ugm-3
14-01-2018,20:00,7.27579,R,ugm-3,8.84711,R,ugm-3,20.00317,R,ugm-3
14-01-2018,21:00,6.28862,R,ugm-3,8.43409,R,ugm-3,18.07652,R,ugm-3
14-01-2018,22:00,4.35085,R,ugm-3,7.09867,R,ugm-3,13.76989,R,ugm-3
14-01-2018,23:00,3.47337,R,ugm-3,4.70416,R,ugm-3,10.02992,R,ugm-3
14-01-2018,24:00,2.15714,R,ugm-3,4.00236,R,ugm-3,7.30994,R,ugm-3
15-01-2018,01:00,2.39118,R,ugm-3,2.38149,R,ugm-3,6.04792,R,ugm-3
15-01-2018,02:00,,,,,,,,,
15-01-2018,03:00,0.91499,R,ugm-3,1.94228,R,ugm-3,3.34526,R,ugm-3
15-01-2018,04:00,3.07438,R,ugm-3,3.50741,R,ugm-3,8.22139,R,ugm-3
15-01-2018,05:00,5.19717,R,ugm-3,4.73175,R,ugm-3,12.70063,R,ugm-3
15-01-2018,06:00,3.73318,R,ugm-3,6.80641,R,ugm-3,12.53053,R,ugm-3
15-01-2018,07:00,51.53245,R,ugm-3,58.14010,R,ugm-3,137.15543,R,ugm-3
15-01-2018,08:00,115.69182,R,ugm-3,79.73934,R,ugm-3,257.13099,R,ugm-3
15-01-2018,09:00,61.26799,R,ugm-3,56.76361,R,ugm-3,150.70654,R,ugm-3
15-01-2018,10:00,100.06372,R,ugm-3,75.52257,R,ugm-3,228.95147,R,ugm-3
15-01-2018,11:00,63.64697,R,ugm-3,57.87862,R,ugm-3,155.46928,R,ugm-3
15-01-2018,12:00,21.95985,R,ugm-3,28.18755,R,ugm-3,61.85885,R,ugm-3
15-01-2018,13:00,20.27626,R,ugm-3,20.78996,R,ugm-3,51.87979,R,ugm-3
15-01-2018,14:00,19.39787,R,ugm-3,21.79661,R,ugm-3,51.53960,R,ugm-3
15-01-2018,15:00,18.19008,R,ugm-3,23.64853,R,ugm-3,51.53960,R,ugm-3
15-01-2018,16:00,24.44863,R,ugm-3,27.43323,R,ugm-3,64.92061,R,ugm-3
15-01-2018,17:00,26.93742,R,ugm-3,28.66338,R,ugm-3,69.96684,R,ugm-3
15-01-2018,18:00,21.70365,R,ugm-3,28.75048,R,ugm-3,62.02895,R,ugm-3
15-01-2018,19:00,10.13813,R,ugm-3,14.56237,R,ugm-3,30.10729,R,ugm-3
15-01-2018,20:00,14.34710,R,ugm-3,15.87650,R,ugm-3,37.87508,R,ugm-3
15-01-2018,21:00,14.20070,R,ugm-3,26.87383,R,ugm-3,48.64794,R,ugm-3
15-01-2018,22:00,5.30697,R,ugm-3,10.97041,R,ugm-3,19.10764,R,ugm-3
15-01-2018,23:00,6.84415,R,ugm-3,12.86586,R,ugm-3,23.36008,R,ugm-3
15-01-2018,24:00,3.87957,R,ugm-3,6.80873,R,ugm-3,12.75733,R,ugm-3